[[{"header":{"parameterUnit":"m.s-1","parameterCategory":1,"la1":30.2991,"la2":30.254,"lo1":-89.0895,"lo2":-89.0444,"dy":0.0017,"dx":0.0017,"nx":28,"ny":28,"refTime":"2024-09-03T21:00:00:Z","depth":0,"parameterNumber":2,"parameterNumberName":"U-component_of_WINDS"},"data":[0,0,0,0,0,0,0,0,0,0,0,0,0,0,0,0,0,0,0,0,0,0,0,0,0,0,0,0,0,0,0,0,0,0,0,0,0,0,0,0,0,0,0,0,0,0,0,0,0,0,0,0,0,0,0,0,0,0,-3.1778,-3.1781,0,-3.2023,-3.2026,-3.2029,-3.2044,-3.2041,-3.2038,-3.2035,-3.2296,-3.2305,-3.2314,0,0,0,0,0,0,0,0,0,0,0,0,0,-3.1334,-3.1342,-3.1778,-3.1781,-3.1784,-3.2023,-3.2026,-3.2029,-3.2044,-3.2041,-3.2037,-3.2034,-3.2292,-3.2304,-3.2315,0,0,0,0,0,0,0,0,0,0,0,0,0,-3.1548,-3.1345,-3.1778,-3.182,-3.1826,-3.2022,-3.2026,-3.203,-3.2045,-3.2041,-3.2036,-3.2032,-3.2289,-3.2303,-3.2317,-3.249,0,0,-3.236,-3.2367,0,0,0,0,0,0,0,0,-3.1536,-3.1564,-3.1811,-3.1817,-3.1825,-3.1998,-3.1965,-3.2185,-3.2046,-3.1962,-3.2035,-3.203,-3.2201,-3.2222,-3.2277,-3.2502,-3.2513,-3.2362,-3.237,-3.2377,-3.2381,0,0,0,0,0,0,0,-3.1521,-3.1554,-3.1875,-3.1814,-3.1823,-3.1831,-3.1856,-3.2007,-3.2102,-3.1969,-3.1971,-3.1999,-3.2204,-3.2264,-3.2284,-3.2517,-3.2361,-3.2374,-3.2383,-3.2389,-3.29,-3.2905,0,0,0,0,0,0,-3.1496,-3.1541,-3.1868,-3.1883,-3.1667,-3.1842,-3.1871,-3.1947,-3.2101,-3.212,-3.2002,-3.1999,-3.2241,-3.2267,-3.2293,-3.2507,-3.2376,-3.239,-3.2398,-3.2895,-3.2901,-3.2907,0,0,0,0,0,0,-3.1487,-3.1525,-3.1858,-3.1713,-3.1755,-3.1854,-3.194,-3.1954,-3.2014,-3.2126,-3.2144,-3.2045,-3.2239,-3.2273,-3.2441,-3.2517,-3.2396,-3.2409,-3.2889,-3.2897,-3.2904,-3.2936,0,0,0,0,0,0,-3.1474,-3.1522,-3.1585,-3.1714,-3.1763,-3.1998,-3.1944,-3.1962,-3.2037,-3.2035,-3.2171,-3.2189,-3.2238,-3.2419,-3.2455,-3.2534,-3.2421,-3.2883,-3.2893,-3.2901,-3.2929,-3.2944,-3.2957,0,0,0,0,0,-3.1458,-3.1586,-3.1589,-3.1628,-3.1844,-3.2002,-3.2031,-3.2081,-3.2043,-3.211,-3.2183,-3.2185,-3.2503,-3.2436,-3.2477,-3.2561,-3.2878,-3.289,-3.2901,-3.2923,-3.2941,-3.2956,0,0,0,0,0,0,-3.1466,-3.1604,-3.1608,-3.178,-3.1879,-3.2004,-3.2089,-3.2099,-3.2213,-3.2206,-3.2268,-3.2299,-3.2466,-3.2531,-3.2454,-3.2739,-3.2687,-3.2707,-3.269,-3.2708,-3.2722,-3.2702,-3.2432,0,0,0,0,0,-3.1488,-3.1601,-3.1717,-3.1858,-3.1907,-3.199,-3.2061,-3.2092,-3.2198,-3.224,-3.2325,-3.2431,-3.2555,-3.2635,-3.2755,-3.2939,-3.2971,-3.3018,-3.3032,-3.3042,-3.3059,-3.3164,-3.3187,-3.2943,-3.2943,-3.2943,0,0,-3.1534,-3.1623,-3.1692,-3.1862,-3.1942,-3.2062,-3.2025,-3.2153,-3.2243,-3.2261,-3.2424,-3.2491,-3.2613,-3.279,-3.2873,-3.285,-3.3134,-3.3057,-3.3065,-3.3075,-3.3178,-3.3201,-3.3221,-3.2951,-3.295,-3.2948,0,0,-3.168,-3.1757,-3.1884,-3.1966,-3.2087,-3.2142,-3.2173,-3.2297,-3.2341,-3.2506,-3.2522,-3.2633,-3.2845,-3.2932,-3.3004,-3.3187,-3.3194,-3.3225,-3.3298,-3.34,-3.3419,-3.3436,-3.3503,-3.3526,-3.3241,-3.3241,-3.3241,0,-3.1722,-3.19,-3.195,-3.2077,-3.2154,-3.2173,-3.2305,-3.2383,-3.2538,-3.2592,-3.2564,-3.2832,-3.2916,-3.3115,-3.3159,-3.3217,-3.3257,-3.3209,-3.3411,-3.3429,-3.3446,-3.3511,-3.3536,-3.3244,-3.3244,-3.3243,-3.3243,0,-3.1948,-3.2071,-3.216,-3.2307,-3.2394,-3.2523,-3.2596,-3.2679,-3.2704,-3.2763,-3.2933,-3.3034,-3.3176,-3.3227,-3.3253,-3.3431,-3.3413,-3.3398,-3.3346,-3.3471,-3.3534,-3.3559,-3.3248,-3.3247,-3.3246,-3.3246,0,0,-3.2102,-3.2277,-3.2309,-3.2377,-3.2514,-3.2613,-3.2745,-3.2882,-3.2952,-3.3061,-3.3175,-3.3356,-3.3343,-3.3425,-3.3462,-3.3551,-3.3692,-3.3525,-3.3529,-3.3553,-3.3898,-3.3909,-3.3937,-3.3698,-3.3703,-3.3707,-3.3889,0,-3.2263,-3.2495,-3.2545,-3.2747,-3.2863,-3.2886,-3.3002,-3.3101,-3.3161,-3.3272,-3.3341,-3.3467,-3.344,-3.349,-3.3579,-3.3655,-3.3762,-3.3643,-3.3809,-3.3814,-3.3777,-3.3969,-3.398,-3.4146,-3.3913,-3.3917,-3.392,0,-3.2481,-3.2592,-3.2804,-3.2928,-3.2979,-3.3082,-3.3213,-3.3318,-3.3433,-3.3471,-3.3563,-3.3592,-3.3735,-3.3677,-3.3878,-3.3796,-3.3868,-3.3916,-3.3924,-3.3941,-3.3874,-3.3992,-3.42,-3.4225,-3.3958,-3.3955,-3.3953,0,-3.2573,-3.2777,-3.293,-3.2988,-3.3137,-3.3209,-3.3275,-3.3385,-3.3465,-3.3582,-3.3635,-3.3768,-3.3841,-3.3945,-3.401,-3.3962,-3.4207,-3.4154,-3.4245,-3.4244,-3.4295,-3.4291,-3.4517,-3.4341,-3.434,-3.434,-3.4339,0,-3.2748,-3.2877,-3.2974,-3.3069,-3.3216,-3.3276,-3.3421,-3.3488,-3.3586,-3.3698,-3.3727,-3.3832,-3.3911,-3.4029,-3.4081,-3.4241,-3.4274,-3.4311,-3.4323,-3.4308,-3.4304,-3.4356,-3.4346,-3.4346,-3.4345,-3.4344,-3.4342,0,-3.2875,-3.2945,-3.3114,-3.3241,-3.3277,-3.338,-3.3491,-3.3586,-3.3648,-3.3788,-3.3825,-3.3923,-3.4063,-3.4138,-3.4314,-3.435,-3.4529,-3.4535,-3.4489,-3.4494,-3.4582,-3.4573,-3.485,-3.4891,-3.4686,-3.4688,-3.4689,0,-3.2981,-3.3081,-3.3219,-3.3294,-3.3361,-3.3482,-3.3563,-3.3628,-3.3713,-3.3853,-3.3932,-3.4073,-3.4189,-3.4412,-3.4502,-3.4637,-3.4648,-3.4736,-3.4668,-3.4651,-3.4651,-3.4644,-3.4656,-3.4747,-3.4749,-3.475,-3.4752,0,-3.3163,-3.3193,-3.3307,-3.3436,-3.3532,-3.3637,-3.3741,-3.3802,-3.3885,-3.398,-3.4121,-3.4211,-3.439,-3.4531,-3.4674,-3.4747,-3.4765,-3.4772,-3.4801,-3.4786,-3.4756,-3.4775,-3.4522,-3.4766,-3.4764,-3.4763,-3.4762,-3.4762,-3.3284,-3.3374,-3.3486,-3.3614,-3.3699,-3.3796,-3.3892,-3.3966,-3.4084,-3.4233,-3.4266,-3.4416,-3.4534,-3.4727,-3.4805,-3.4926,-3.491,-3.495,-3.4961,-3.497,-3.4974,-3.4736,-3.4953,-3.4953,-3.4952,-3.4952,-3.4952,0,-3.3468,-3.3541,-3.3658,-3.3802,-3.3904,-3.3909,-3.4026,-3.4112,-3.4243,-3.4349,-3.4463,-3.4628,-3.4766,-3.4867,-3.5009,-3.5087,-3.5099,-3.5123,-3.5118,-3.5135,-3.498,-3.4942,-3.511,-3.511,-3.511,-3.511,-3.511,-3.511,-3.3575,-3.3729,-3.3774,-3.3973,-3.4047,-3.4191,-3.4258,-3.435,-3.4435,-3.4617,-3.4731,-3.4795,-3.4901,-3.5051,-3.518,-3.5206,-3.5258,-3.528,-3.5308,-3.5162,-3.5145,-3.5129,-3.5093,-3.5291,-3.5291,-3.5453,-3.5454,-3.5455]},{"header":{"parameterUnit":"m.s-1","parameterCategory":1,"la1":30.2991,"la2":30.254,"lo1":-89.0895,"lo2":-89.0444,"dy":0.0017,"dx":0.0017,"nx":28,"ny":28,"refTime":"2024-09-03T21:00:00:Z","depth":0,"parameterNumber":3,"parameterNumberName":"V-component_of_WINDS"},"data":[0,0,0,0,0,0,0,0,0,0,0,0,0,0,0,0,0,0,0,0,0,0,0,0,0,0,0,0,0,0,0,0,0,0,0,0,0,0,0,0,0,0,0,0,0,0,0,0,0,0,0,0,0,0,0,0,0,0,0.4944,0.4944,0,0.5006,0.5007,0.5007,0.502,0.502,0.5019,0.5019,0.5083,0.5086,0.5088,0,0,0,0,0,0,0,0,0,0,0,0,0,0.4836,0.4838,0.4944,0.4944,0.4945,0.5006,0.5007,0.5008,0.502,0.502,0.5019,0.5019,0.5083,0.5085,0.5088,0,0,0,0,0,0,0,0,0,0,0,0,0,0.4889,0.4838,0.4943,0.4959,0.4961,0.5006,0.5007,0.5008,0.502,0.502,0.5019,0.5018,0.5082,0.5085,0.5088,0.5122,0,0,0.5098,0.51,0,0,0,0,0,0,0,0,0.4886,0.4893,0.4956,0.4958,0.496,0.5005,0.4992,0.5046,0.5021,0.4998,0.5019,0.5018,0.5058,0.5063,0.5076,0.5126,0.5128,0.5098,0.51,0.5102,0.5103,0,0,0,0,0,0,0,0.4882,0.489,0.4968,0.4957,0.4959,0.4963,0.4969,0.5003,0.5031,0.5,0.5001,0.5008,0.5059,0.5073,0.5078,0.5129,0.5098,0.5101,0.5103,0.5104,0.521,0.521,0,0,0,0,0,0,0.4876,0.4887,0.4966,0.497,0.492,0.4965,0.4973,0.4991,0.5031,0.5036,0.5009,0.5008,0.5068,0.5074,0.508,0.5123,0.5102,0.5105,0.5107,0.5209,0.521,0.5211,0,0,0,0,0,0,0.4873,0.4883,0.4964,0.4929,0.4939,0.4968,0.4988,0.4993,0.5007,0.5037,0.5043,0.5018,0.5068,0.5076,0.5112,0.5125,0.5106,0.5109,0.5208,0.5209,0.521,0.5208,0,0,0,0,0,0,0.487,0.4882,0.4895,0.4929,0.4941,0.4994,0.4989,0.4994,0.5012,0.5013,0.5047,0.5053,0.5068,0.5107,0.5115,0.5129,0.5112,0.5207,0.5208,0.521,0.5207,0.5209,0.521,0,0,0,0,0,0.4866,0.4892,0.4895,0.4905,0.4958,0.4995,0.5002,0.5018,0.5013,0.5027,0.5046,0.5051,0.5122,0.511,0.512,0.5135,0.5206,0.5208,0.521,0.5206,0.5208,0.521,0,0,0,0,0,0,0.4858,0.4897,0.4901,0.4938,0.4963,0.4997,0.5014,0.5021,0.5047,0.5047,0.5067,0.5074,0.5109,0.5126,0.5112,0.517,0.5164,0.5168,0.5158,0.516,0.5162,0.5157,0.5114,0,0,0,0,0,0.4861,0.4887,0.4919,0.4949,0.4962,0.4986,0.5002,0.5013,0.504,0.505,0.5073,0.5098,0.5126,0.5145,0.5172,0.521,0.5217,0.5225,0.5227,0.5228,0.5231,0.5252,0.5255,0.5217,0.5217,0.5217,0,0,0.4867,0.4891,0.4906,0.4948,0.4969,0.4996,0.4995,0.5023,0.5043,0.5055,0.509,0.5107,0.5137,0.5174,0.5191,0.5189,0.5243,0.523,0.5231,0.5233,0.5254,0.5257,0.5261,0.5218,0.5218,0.5218,0,0,0.4891,0.4912,0.4939,0.4959,0.499,0.5006,0.5013,0.5046,0.5057,0.5093,0.5102,0.5127,0.5175,0.5196,0.5213,0.5245,0.525,0.5253,0.5263,0.5283,0.5286,0.5289,0.53,0.5303,0.5256,0.5256,0.5256,0,0.4894,0.4934,0.4952,0.498,0.4998,0.501,0.5037,0.5056,0.5095,0.5107,0.5104,0.5165,0.5186,0.5227,0.5235,0.5249,0.5257,0.5249,0.5284,0.5287,0.529,0.5301,0.5305,0.5256,0.5256,0.5256,0.5256,0,0.4936,0.4965,0.4983,0.5019,0.504,0.5067,0.5089,0.5108,0.5117,0.5133,0.5169,0.5195,0.5228,0.5239,0.5248,0.5282,0.5279,0.528,0.5274,0.5293,0.5304,0.5308,0.5257,0.5257,0.5257,0.5257,0,0,0.4957,0.5003,0.5009,0.5026,0.5061,0.5083,0.5111,0.5143,0.5159,0.5185,0.5209,0.5249,0.525,0.5269,0.5281,0.5299,0.5322,0.5297,0.5298,0.5301,0.5361,0.5359,0.5364,0.5326,0.5327,0.5328,0.5358,0,0.4984,0.5035,0.5051,0.5093,0.5119,0.5131,0.5156,0.518,0.5196,0.5221,0.5239,0.5267,0.5266,0.5278,0.5296,0.5315,0.5334,0.5314,0.5349,0.535,0.534,0.537,0.5369,0.5396,0.5362,0.5363,0.5363,0,0.5023,0.505,0.5094,0.5126,0.5138,0.5159,0.519,0.5213,0.5241,0.5252,0.5273,0.5284,0.5314,0.5307,0.5348,0.5334,0.5349,0.5361,0.5363,0.5366,0.5357,0.5373,0.5405,0.5409,0.537,0.537,0.5369,0,0.5033,0.508,0.5112,0.5126,0.5165,0.518,0.5196,0.5223,0.5241,0.5268,0.528,0.5311,0.5327,0.535,0.5369,0.5362,0.5409,0.5403,0.5418,0.5418,0.5427,0.5426,0.5461,0.5438,0.5438,0.5438,0.5438,0,0.5062,0.5088,0.5117,0.5137,0.5167,0.5187,0.5216,0.5233,0.5257,0.5281,0.5293,0.5315,0.5339,0.5364,0.5379,0.5411,0.5418,0.5428,0.5431,0.5426,0.5425,0.5436,0.5435,0.5439,0.5439,0.5438,0.5438,0,0.5077,0.5098,0.5134,0.5167,0.5176,0.5197,0.5225,0.5245,0.5262,0.5292,0.53,0.5326,0.5356,0.5377,0.5416,0.5426,0.5461,0.5464,0.5451,0.5453,0.5467,0.5465,0.5509,0.5516,0.5489,0.5489,0.5489,0,0.5094,0.5114,0.515,0.5166,0.5183,0.521,0.5228,0.5248,0.5267,0.53,0.5316,0.5347,0.5373,0.542,0.5443,0.5473,0.5477,0.5491,0.5482,0.5476,0.5477,0.5475,0.5477,0.5492,0.5492,0.5492,0.5492,0,0.5121,0.513,0.5156,0.5186,0.5208,0.5232,0.5257,0.527,0.5294,0.5314,0.5345,0.5365,0.5405,0.5435,0.5467,0.5485,0.5493,0.5495,0.55,0.5495,0.5486,0.5491,0.5454,0.5494,0.5494,0.5494,0.5494,0.5494,0.5137,0.5156,0.5184,0.5213,0.5233,0.5256,0.5276,0.5295,0.5321,0.5355,0.5365,0.5397,0.5425,0.5469,0.5486,0.5512,0.5511,0.5518,0.552,0.5521,0.5521,0.5483,0.5518,0.5518,0.5518,0.5518,0.5518,0,0.5165,0.5183,0.521,0.5243,0.5266,0.5271,0.5299,0.5317,0.5345,0.537,0.5395,0.5431,0.5461,0.5486,0.5517,0.5532,0.5537,0.554,0.5538,0.5542,0.5521,0.5513,0.5536,0.5536,0.5535,0.5535,0.5535,0.5535,0.5182,0.5214,0.5226,0.5269,0.5287,0.5318,0.5334,0.5355,0.5375,0.5414,0.5438,0.5454,0.548,0.5512,0.554,0.5547,0.5557,0.5559,0.5567,0.5546,0.5544,0.5542,0.5535,0.5562,0.5562,0.5586,0.5587,0.5587]}]]